Temp
17 13 14 16 16 16 16 15 15 14 15 14 13 12 12 13 14 14 15 15 16 17 18 18 18 18 17 16 16 16 16 15 15 14 14 13 13 13 12 12 12 12 12 11
14 15 17 14 15 16 16 15 14 13 14 14 13 13 13 13 12 13 14 15 16 18 18 19 19 18 17 17 16 16 16 15 15 14 14 13 13 12 12 12 12 12 11 11
14 17 16 16 14 14 14 15 15 14 12 14 12 14 13 15 15 15 15 16 17 18 18 18 18 17 17 17 16 16 15 15 14 13 13 12 12 12 12 12 11 11 11 10
16 16 15 15 15 14 14 15 14 13 13 13 12 13 14 12 13 13 15 16 15 16 17 17 17 17 17 16 15 15 15 14 13 12 12 12 11 11 11 11 10 10 10 10
16 16 15 15 16 15 14 13 13 13 12 12 12 11 13 12 13 13 13 15 16 16 16 16 15 15 15 15 15 14 13 12 12 11 11 11 11 11 10 10 10 10 9 9
14 16 15 16 15 14 13 12 11 10 10 10 13 12 11 12 13 13 13 15 15 15 15 15 14 14 14 13 12 12 12 12 12 11 11 11 10 10 10 9 9 8 8 8
12 14 14 15 14 13 12 10 9 11 9 11 12 11 11 13 12 12 12 14 14 15 14 13 13 13 12 12 11 11 11 11 11 10 10 10 9 9 8 8 8 8 7 7
10 12 13 14 14 14 13 11 7 11 8 9 10 12 12 13 13 12 13 13 12 12 11 11 11 11 11 11 11 10 10 10 10 9 9 8 8 7 6 7 7 6 6 5
10 12 12 14 13 13 13 10 11 8 7 7 9 10 12 10 10 10 10 11 10 10 11 11 10 10 10 10 10 10 9 9 8 8 7 6 5 6 6 6 5 5 5 5
11 10 12 12 14 13 12 12 10 6 7 10 9 9 11 10 9 9 8 9 10 10 10 10 10 9 9 8 8 7 6 6 6 6 6 5 4 4 4 4 4 4 4 4
11 9 11 11 11 11 10 10 9 8 7 6 7 8 10 9 9 9 8 9 9 9 9 9 9 9 8 7 7 7 6 7 6 6 5 4 3 3 3 3 3 3 2 1
10 7 7 11 11 10 10 10 8 6 8 5 5 7 10 9 9 8 8 8 9 8 8 8 8 8 7 7 7 7 6 6 5 5 4 3 3 2 2 2 2 0 -1 -1
11 7 6 9 10 10 10 10 8 6 4 8 7 7 9 10 10 9 8 8 8 8 8 8 8 8 7 6 6 6 5 5 5 4 3 3 2 2 1 -0 -1 -1 -2 -2
11 7 8 7 9 8 8 9 8 8 6 7 8 9 10 10 7 8 8 8 8 8 7 7 6 6 6 6 6 6 5 5 4 3 2 2 1 -0 -1 -1 -2 -2 -3 -3
8 8 7 7 7 7 8 7 7 7 7 7 9 7 8 7 7 8 8 8 8 7 6 6 5 5 5 6 6 5 4 3 2 2 1 1 -1 -2 -2 -2 -3 -3 -3 -3
7 6 6 5 6 6 5 6 7 7 6 7 7 6 7 8 8 8 8 7 6 5 4 4 4 5 5 4 4 3 2 2 2 1 0 -1 -2 -2 -2 -2 -3 -3 -3 -3
7 4 3 4 4 4 5 7 6 8 7 8 7 8 7 7 7 7 7 6 5 5 4 4 4 3 3 3 2 1 1 1 0 -1 -1 -1 -2 -2 -2 -3 -3 -3 -3 -3
2 2 2 3 3 5 9 8 9 8 7 7 6 6 7 7 7 6 6 5 4 4 4 3 2 2 2 2 2 1 0 -0 -1 -1 -2 -2 -2 -2 -2 -3 -3 -3 -4 -4
4 2 4 6 5 6 9 9 9 7 7 8 6 7 7 7 6 6 5 3 3 4 3 2 2 2 2 1 -0 -1 -1 -2 -2 -2 -2 -3 -3 -3 -3 -3 -4 -4 -5 -5
2 1 2 4 6 5 7 8 9 8 5 7 8 8 7 6 4 5 3 3 4 3 2 2 2 1 0 -0 -1 -1 -2 -2 -3 -3 -3 -3 -3 -3 -4 -4 -4 -5 -6 -6
1 3 5 5 5 5 6 7 8 5 7 7 8 8 6 4 4 1 2 4 3 2 2 2 1 -0 -1 -2 -2 -2 -2 -3 -4 -4 -4 -4 -4 -4 -4 -5 -6 -6 -7 -7
5 3 2 2 3 3 7 8 7 8 7 7 7 6 5 2 2 2 4 4 3 2 2 1 0 -1 -2 -2 -2 -3 -3 -4 -4 -4 -4 -4 -4 -5 -5 -6 -6 -7 -7 -8
5 6 5 5 4 7 8 9 9 9 7 6 5 4 3 1 2 4 3 2 2 1 1 1 -0 -2 -2 -2 -3 -3 -3 -3 -4 -4 -4 -4 -5 -5 -6 -7 -8 -8 -8 -9
6 7 4 6 7 7 9 9 8 7 5 4 3 1 -0 1 3 2 2 2 1 1 1 0 -1 -2 -2 -3 -3 -3 -3 -4 -4 -4 -5 -5 -5 -6 -7 -8 -8 -9 -9 -10
5 6 5 5 7 7 7 8 6 4 3 2 0 1 1 2 2 2 2 1 1 0 0 -1 -2 -2 -3 -3 -3 -3 -4 -4 -4 -5 -5 -6 -6 -7 -8 -8 -9 -9 -10 -11
6 6 5 6 8 7 6 4 3 2 -0 -1 1 2 2 2 2 1 1 1 0 -0 -0 -1 -2 -2 -3 -3 -3 -4 -4 -5 -5 -5 -6 -6 -6 -7 -8 -9 -9 -10 -10 -11
Height
1526 1536 1544 1537 1536 1537 1539 1544 1544 1540 1535 1536 1536 1534 1525 1519 1516 1517 1516 1517 1520 1525 1527 1528 1527 1528 1530 1533 1536 1538 1539 1539 1538 1537 1537 1536 1535 1533 1530 1528 1527 1525 1523 1521
1534 1541 1536 1536 1537 1538 1539 1542 1545 1539 1536 1536 1535 1533 1528 1523 1524 1523 1522 1521 1523 1525 1526 1526 1526 1527 1530 1532 1535 1536 1537 1537 1536 1535 1534 1533 1531 1530 1528 1526 1523 1521 1519 1517
1540 1539 1536 1537 1541 1542 1541 1541 1542 1544 1539 1535 1537 1535 1533 1528 1526 1526 1526 1526 1527 1528 1528 1529 1529 1530 1531 1532 1533 1535 1535 1534 1533 1532 1531 1529 1528 1526 1523 1522 1519 1517 1513 1510
1539 1537 1538 1540 1541 1542 1546 1537 1539 1541 1545 1550 1541 1553 1538 1536 1532 1530 1529 1530 1531 1530 1530 1530 1530 1530 1532 1533 1533 1532 1532 1531 1530 1528 1527 1525 1523 1520 1518 1514 1511 1509 1506 1502
1543 1540 1541 1542 1542 1540 1542 1536 1538 1538 1544 1546 1548 1555 1545 1538 1537 1536 1535 1534 1533 1532 1532 1532 1532 1532 1531 1531 1531 1530 1529 1528 1527 1525 1523 1520 1517 1514 1509 1506 1501 1498 1495 1491
1542 1540 1540 1540 1538 1538 1536 1537 1540 1545 1549 1562 1550 1555 1555 1546 1542 1540 1538 1536 1535 1534 1533 1533 1533 1532 1531 1530 1530 1529 1528 1526 1524 1523 1520 1516 1512 1507 1502 1498 1493 1488 1485 1481
1548 1545 1542 1541 1542 1539 1541 1549 1566 1562 1569 1565 1551 1554 1552 1542 1542 1541 1538 1535 1533 1530 1529 1530 1529 1529 1529 1529 1528 1527 1525 1524 1522 1519 1515 1511 1506 1502 1496 1491 1485 1481 1476 1472
1564 1563 1547 1544 1545 1547 1548 1553 1577 1570 1580 1573 1553 1554 1549 1541 1542 1542 1539 1537 1535 1532 1532 1531 1531 1531 1530 1529 1527 1526 1523 1521 1518 1513 1509 1505 1500 1496 1491 1485 1479 1475 1471 1467
1567 1559 1548 1545 1546 1547 1549 1561 1556 1572 1577 1582 1564 1550 1541 1541 1542 1542 1541 1539 1537 1536 1536 1534 1534 1533 1530 1528 1527 1524 1520 1517 1512 1507 1503 1499 1494 1488 1483 1477 1474 1469 1465 1462
1560 1565 1551 1547 1546 1547 1548 1553 1565 1576 1589 1575 1566 1558 1551 1548 1547 1545 1544 1541 1540 1539 1538 1537 1535 1532 1529 1527 1524 1520 1516 1511 1507 1502 1496 1491 1489 1484 1478 1472 1467 1462 1459 1457
1559 1566 1559 1551 1556 1557 1557 1560 1564 1568 1578 1589 1585 1565 1545 1547 1545 1543 1541 1541 1541 1540 1538 1534 1531 1528 1524 1522 1518 1514 1509 1504 1499 1495 1491 1487 1481 1475 1468 1464 1461 1458 1457 1455
1562 1570 1575 1558 1553 1554 1555 1560 1565 1582 1577 1585 1589 1565 1541 1540 1541 1540 1540 1540 1539 1537 1534 1531 1527 1524 1521 1517 1512 1508 1504 1500 1496 1492 1487 1481 1475 1468 1461 1456 1455 1455 1456 1455
1562 1574 1583 1565 1559 1558 1560 1561 1564 1572 1581 1574 1578 1563 1539 1538 1538 1539 1539 1538 1535 1531 1527 1524 1522 1520 1517 1513 1509 1505 1500 1495 1491 1486 1481 1476 1470 1463 1459 1456 1455 1453 1452 1450
1561 1572 1574 1583 1568 1565 1565 1562 1563 1566 1574 1567 1559 1548 1540 1538 1539 1538 1537 1535 1531 1528 1526 1523 1520 1517 1513 1508 1503 1498 1494 1489 1484 1480 1476 1470 1465 1460 1456 1453 1452 1450 1448 1447
1563 1570 1571 1569 1565 1562 1559 1559 1559 1563 1559 1562 1546 1548 1539 1537 1538 1536 1533 1530 1527 1525 1523 1520 1516 1512 1507 1504 1499 1494 1489 1483 1479 1473 1469 1466 1460 1457 1455 1452 1450 1450 1449 1446
1565 1573 1569 1570 1565 1565 1562 1553 1550 1550 1551 1549 1545 1541 1532 1534 1534 1532 1530 1526 1523 1521 1519 1516 1512 1508 1503 1498 1492 1488 1483 1479 1474 1469 1466 1463 1458 1456 1453 1452 1450 1448 1447 1444
1567 1573 1578 1577 1570 1567 1563 1543 1544 1541 1540 1537 1540 1531 1531 1531 1530 1527 1525 1521 1518 1516 1514 1510 1507 1504 1500 1495 1491 1484 1478 1473 1469 1464 1461 1459 1457 1454 1452 1451 1449 1447 1444 1441
1571 1576 1580 1580 1574 1577 1540 1535 1535 1537 1533 1530 1530 1528 1529 1528 1526 1523 1521 1517 1518 1515 1512 1509 1505 1500 1494 1489 1483 1479 1474 1469 1464 1460 1458 1457 1455 1453 1451 1449 1446 1444 1441 1438
1562 1572 1575 1570 1569 1557 1539 1530 1530 1533 1531 1523 1525 1526 1525 1522 1518 1517 1514 1515 1513 1511 1509 1505 1501 1495 1487 1482 1478 1474 1473 1466 1462 1460 1458 1457 1454 1452 1449 1446 1443 1440 1436 1433
1567 1569 1577 1575 1567 1561 1537 1529 1529 1529 1533 1521 1522 1521 1520 1519 1518 1513 1514 1513 1512 1507 1505 1501 1495 1489 1483 1478 1473 1471 1468 1465 1463 1460 1458 1456 1453 1449 1446 1442 1439 1435 1431 1428
1574 1571 1566 1565 1561 1548 1529 1527 1530 1544 1529 1520 1520 1518 1516 1516 1514 1511 1509 1508 1507 1502 1498 1495 1490 1485 1479 1476 1471 1467 1464 1463 1461 1459 1456 1453 1450 1446 1442 1438 1435 1431 1427 1424
1562 1570 1571 1570 1567 1558 1523 1528 1533 1524 1518 1515 1513 1512 1511 1510 1510 1508 1505 1502 1499 1496 1492 1489 1484 1479 1476 1472 1468 1465 1462 1461 1459 1457 1454 1450 1447 1442 1438 1434 1430 1427 1423 1419
1557 1545 1548 1548 1542 1524 1522 1520 1519 1516 1513 1510 1510 1507 1507 1505 1508 1504 1500 1497 1494 1491 1487 1483 1478 1476 1475 1471 1467 1463 1461 1459 1456 1453 1451 1447 1443 1438 1434 1430 1426 1423 1419 1415
1540 1536 1538 1535 1523 1517 1515 1514 1513 1512 1510 1509 1506 1505 1508 1509 1505 1503 1495 1492 1491 1487 1483 1480 1476 1472 1470 1468 1464 1461 1458 1456 1453 1450 1447 1443 1439 1435 1431 1428 1424 1420 1416 1411
1537 1535 1532 1525 1518 1513 1513 1511 1511 1507 1506 1507 1507 1506 1506 1504 1501 1499 1493 1488 1486 1482 1479 1475 1472 1469 1464 1463 1460 1457 1454 1452 1449 1446 1443 1439 1436 1432 1428 1425 1421 1418 1414 1410
1530 1526 1526 1516 1512 1510 1508 1507 1506 1506 1508 1508 1508 1506 1504 1502 1498 1495 1489 1485 1481 1476 1473 1470 1468 1464 1459 1458 1455 1452 1450 1448 1445 1442 1439 1436 1432 1429 1425 1421 1418 1416 1412 1408
Wind_Speed
7 8 2 3 1 2 1 2 3 3 2 6 5 6 9 13 15 14 11 5 4 12 13 16 19 19 14 17 16 12 8 7 10 10 10 11 13 15 17 20 22 22 25 29
6 4 1 6 5 2 1 2 4 5 3 1 6 7 6 10 8 12 14 13 11 10 8 10 10 6 3 6 8 9 9 11 13 13 14 17 20 22 24 26 28 28 28 29
5 1 4 4 5 6 4 2 2 5 7 1 5 5 7 4 10 12 13 11 11 10 10 9 8 6 3 4 6 7 9 12 16 17 19 21 24 26 27 29 30 29 33 35
3 3 5 5 4 2 3 1 3 6 3 1 4 2 5 6 5 7 4 4 5 5 5 3 0 2 4 6 8 11 14 16 16 16 16 18 21 26 31 33 33 34 34 36
1 3 5 6 2 1 6 4 2 2 3 3 7 4 6 5 4 5 9 6 4 3 5 6 7 7 8 10 11 13 11 8 8 9 13 21 28 32 35 39 41 42 37 30
1 2 3 2 2 2 5 4 5 4 2 3 1 3 5 3 3 4 6 12 13 10 11 9 8 7 6 7 7 7 8 11 13 17 23 28 34 38 41 41 38 36 35 36
6 3 5 4 6 6 9 6 3 3 4 3 3 1 4 4 6 6 12 19 19 15 9 8 8 6 5 6 8 11 15 19 24 29 32 34 34 33 34 35 36 37 35 35
4 5 5 6 1 2 3 4 4 2 1 4 4 3 5 3 20 13 10 11 11 15 13 12 11 11 11 13 18 22 26 29 31 31 30 28 28 30 34 37 35 32 31 34
4 3 5 2 3 1 1 4 2 5 2 2 4 5 2 4 8 16 13 14 14 13 14 14 13 16 22 24 26 27 27 27 26 27 26 27 30 35 39 36 32 27 28 31
1 3 1 5 2 7 5 3 3 3 2 3 5 5 3 6 8 7 7 15 13 7 11 16 22 22 19 21 23 24 24 25 26 29 30 33 38 41 39 37 27 24 27 27
2 3 5 2 5 2 4 3 5 4 3 3 2 6 4 4 3 2 5 8 11 9 15 21 24 22 20 24 25 26 26 30 32 34 34 38 40 42 41 31 24 23 19 14
2 4 3 4 3 1 3 3 4 4 2 1 3 6 2 7 2 2 5 12 15 20 25 25 27 27 23 31 29 30 31 34 33 35 36 41 41 44 33 24 17 9 6 8
1 2 4 8 5 5 5 1 4 5 3 6 3 6 3 13 13 6 10 15 23 30 30 26 30 26 26 29 30 30 30 34 34 33 38 42 42 34 24 15 9 8 10 15
3 2 5 5 7 3 4 4 4 5 2 3 11 17 18 14 6 11 17 21 27 30 27 26 26 26 28 30 31 32 33 34 32 33 37 37 32 25 16 11 12 13 14 13
3 2 4 6 9 7 9 11 8 9 8 7 13 8 11 7 3 11 18 22 27 27 22 22 24 25 27 31 35 35 34 31 31 35 33 25 21 19 18 16 15 13 17 16
3 3 0 4 5 5 8 12 13 10 6 13 14 16 8 4 8 17 23 21 22 17 20 26 26 28 32 37 37 35 31 33 32 35 24 18 17 14 12 13 15 15 16 18
0 2 2 5 3 8 7 6 5 3 5 5 6 9 4 4 14 20 18 18 11 17 20 24 28 33 35 36 37 36 36 31 32 27 23 17 13 13 13 15 15 18 20 18
5 4 2 4 5 1 6 3 6 8 10 8 7 4 5 11 19 18 17 11 15 23 25 26 29 34 40 42 40 36 30 28 29 23 17 15 15 16 17 19 19 20 20 23
5 4 2 3 4 6 10 8 1 5 7 4 4 2 11 20 18 10 8 10 18 19 24 26 33 36 36 31 29 27 26 24 17 15 13 14 17 18 19 20 22 24 24 23
6 5 3 1 5 5 7 3 2 2 7 2 5 9 12 22 9 6 9 19 18 19 23 31 34 33 31 27 22 22 23 17 14 11 14 18 18 19 22 25 24 23 24 24
1 0 5 5 5 7 9 11 6 4 6 7 15 14 20 5 5 8 10 15 20 21 26 31 31 32 26 22 21 19 19 13 15 13 19 17 22 23 25 24 23 23 23 24
5 4 4 1 2 8 6 3 4 8 12 22 26 22 7 2 7 10 13 18 21 22 27 29 29 28 27 21 19 17 14 10 15 18 19 20 24 25 25 24 22 22 23 24
4 7 4 8 7 7 6 16 26 25 25 25 13 6 7 5 10 15 19 21 22 23 26 27 24 22 19 17 19 21 19 18 16 19 21 24 25 24 23 22 23 24 24 24
4 6 4 2 8 22 23 33 39 28 14 8 6 6 5 15 21 25 25 22 21 26 26 25 22 17 16 14 14 18 21 21 18 19 22 22 24 23 22 22 23 24 23 25
7 2 4 7 20 26 28 26 18 11 8 3 2 7 13 18 25 27 27 24 25 27 26 23 20 19 18 20 20 22 22 19 20 20 20 22 23 23 23 21 22 23 21 23
10 7 5 10 24 20 15 6 6 4 8 13 14 18 21 22 26 27 29 27 27 27 25 24 22 21 21 22 23 22 20 20 19 19 20 22 23 22 21 22 25 20 20 23
Wind_Direction
24 64 61 344 31 138 137 223 260 253 252 353 323 299 322 6 45 31 33 43 208 219 240 249 253 243 236 234 234 237 261 285 301 304 303 304 320 327 330 337 337 320 311 305
33 77 288 104 64 89 57 353 318 290 269 149 353 325 326 15 39 52 66 81 104 114 98 72 59 75 191 213 223 239 271 285 290 292 298 293 296 302 312 319 319 318 310 306
112 107 66 105 40 33 334 204 250 242 330 54 343 349 9 12 60 62 64 85 94 91 95 92 96 100 156 219 268 276 285 280 279 281 281 285 288 292 298 304 301 298 300 298
72 21 80 62 56 102 310 161 321 293 47 237 29 247 353 336 31 26 49 73 71 101 122 91 283 293 278 260 254 262 268 275 282 288 297 302 303 306 310 307 303 304 299 296
280 36 58 54 308 198 244 347 239 210 152 96 345 70 293 357 19 8 21 28 21 266 241 250 247 257 250 252 257 264 278 299 307 312 311 307 304 301 301 304 303 305 305 301
12 350 53 299 322 6 300 31 44 46 87 50 326 111 310 326 331 33 20 1 346 323 290 273 277 269 273 285 299 318 315 309 301 299 305 308 306 304 306 307 310 310 309 306
341 357 325 22 9 357 25 41 354 4 11 210 260 87 206 330 84 68 358 359 354 353 351 314 314 323 347 4 357 338 326 317 311 308 307 306 308 310 311 312 313 310 307 304
37 338 7 342 79 287 5 97 131 212 317 285 318 189 196 155 68 25 14 357 17 34 42 53 50 37 17 357 341 327 319 311 307 311 313 313 311 314 317 320 315 309 309 310
30 291 322 309 335 58 336 49 151 105 350 32 279 313 289 177 24 28 53 37 30 41 44 42 26 0 344 333 325 318 312 312 315 317 319 319 319 321 322 321 317 306 305 307
343 324 298 292 47 34 97 137 40 12 61 288 307 294 244 43 344 4 29 23 16 15 13 352 343 337 329 327 325 325 323 329 333 333 331 327 324 323 324 326 310 301 296 300
47 90 292 345 37 5 357 28 57 107 124 175 290 267 203 152 351 39 32 13 9 351 334 330 332 324 312 328 328 333 333 333 333 331 329 328 327 328 328 325 311 301 292 278
1 136 293 259 136 248 111 114 97 107 289 207 165 269 207 133 187 127 4 357 348 337 330 326 326 327 324 332 333 330 332 331 328 328 328 329 330 329 325 322 309 285 243 256
178 359 359 344 27 14 69 120 102 97 79 215 201 262 185 292 356 1 333 335 335 337 338 337 336 330 324 330 330 326 326 330 326 322 326 329 327 326 321 299 266 242 241 252
103 115 158 206 247 218 267 189 192 146 221 239 243 268 282 291 323 331 326 325 327 332 333 334 331 329 335 334 334 329 322 321 318 320 327 327 326 333 311 275 254 238 245 263
90 210 194 248 266 278 274 273 251 208 224 219 267 253 264 276 246 293 309 320 322 320 326 330 327 331 332 328 321 323 319 320 319 326 327 321 326 329 322 295 278 288 335 347
9 261 258 276 302 320 284 262 251 256 232 237 255 267 258 200 315 315 313 309 309 326 337 336 330 329 325 325 324 325 324 321 322 328 318 321 328 320 341 335 327 324 319 308
97 131 57 274 319 314 317 265 187 212 220 207 252 271 175 294 308 310 308 322 325 325 329 330 327 325 325 326 325 321 322 324 327 322 306 308 300 311 318 327 323 313 310 304
142 106 148 276 359 355 249 274 223 214 260 255 261 242 225 287 317 318 310 313 328 339 338 330 326 324 326 325 323 319 319 323 324 316 312 319 346 344 326 317 312 308 306 305
147 131 185 235 223 296 302 295 92 171 262 227 225 233 285 321 327 327 306 313 338 331 322 324 323 326 326 331 336 336 322 322 340 357 359 342 330 324 320 318 314 311 311 314
61 71 121 124 262 254 240 268 24 109 283 259 180 284 311 321 301 313 319 334 327 321 321 325 325 327 330 331 331 327 330 332 340 325 330 325 323 321 323 323 319 318 317 317
29 164 226 246 258 268 250 261 271 82 286 203 312 287 305 254 277 345 359 328 313 315 323 328 327 328 334 329 322 313 321 315 306 307 332 330 318 319 323 321 319 319 320 319
184 183 210 117 221 279 215 150 181 261 296 321 307 298 274 199 313 331 319 306 306 310 325 328 330 339 340 338 333 319 322 304 322 333 313 312 319 323 323 321 323 326 325 324
260 200 192 188 218 252 221 268 301 295 304 308 282 228 227 293 319 314 306 304 302 315 325 326 329 331 333 341 342 339 334 325 314 309 312 317 322 325 325 325 330 333 331 329
262 226 230 327 254 266 284 288 299 298 306 289 273 179 35 332 315 311 310 308 308 322 320 318 323 324 324 325 320 317 315 314 311 311 317 324 327 330 330 328 332 333 333 333
208 188 239 253 278 283 283 292 304 313 329 359 31 2 334 320 316 320 316 311 312 316 313 310 313 312 316 315 316 314 316 314 313 317 324 330 333 333 330 326 331 334 335 334
219 231 249 266 278 267 304 339 343 96 53 34 1 333 326 317 315 315 313 310 311 311 308 302 305 303 308 307 310 311 311 310 311 316 325 332 335 335 331 328 327 332 332 333